SL-8 DEB, 21175

Orbit data source: Space-Track

SL-8 DEB, 21175 is space debris in LEO originally from a launch on Tue, 12 Feb 1991 UTC launched from the Plesetsk Missile And Space Complex (PKMTR). Debris objects in space refer to the collection of defunct objects orbiting the Earth. Examples of debris include non-operational satellites, rocket bodies, and fragments generated from explosions, collisions, or faulty payload assembly.

Loading next visibility...
Identifier
21175, 1991-009AN
Orbit
LEO
Country
Flag of CISCIS
Related business
Manufacturer
Unknown
Mission
Spacecraft
Bus & Motor
Unknown
Mass
Unknown
Launch date (UTC)
1991-02-12 (35 years ago)
Launch vehicle
Unknown
Launch site
Plesetsk Missile And Space Complex (PKMTR)
Object type
Payload
Rocket body
Debris
Shape & HBR
Unknown shape, 0.2 m
Radar Cross Section
Medium (>0.1 m² and <1 m²)

Expand to show TLE details & history
Last TLE update: 2 days ago

TLE from 2 days ago
0 SL-8 DEB
1 21175U 91009AN  26171.45190573 -.00000021  00000-0 -54406-4 0  9994
2 21175  73.9326 171.1814 0146139 100.6842  17.9769 12.28585135582819
Epoch: 2026-06-20T10:50Z
TLE epoch observation values (Epoch: 2026-06-20T10:50:44.655Z)
Latitude
57.12608°
Longitude
-106.49562°
Altitude
1,454.415 km
Speed
7.19 km/s
True Right ascension
21h 39m 25s
True Declination
56° 58' 59"
Sunlit
Object was in daylight at epoch
Visualization orbit readout
Latitude
Unknown
Longitude
Unknown
Altitude
Unknown
Speed
Unknown
Apparent Right ascension
Unknown
Apparent Declination
Unknown
Sunlit
N/A
Visualization observer readout
Local Sidereal Time
02:13:16
Azimuth
Unknown
Elevation
Unknown
Doppler factor
Unknown
Orbital elements
Apogee altitude
1,669.141 km
Perigee altitude
1,437.325 km
Semi-major axis
7,931.37 km
Eccentricity
0.01461
Inclination
73.9326°
RAAN
171.1814°
Arg. of periapsis
100.6842°
True anomaly
18.50287°
Mean anomaly
17.9769°
Eccentric anomaly
18.23896°
Mean motion
3.0727 °/min
Orbital period
117.16 mins
BSTAR
-0.000054406
Loading maneuver chart data...
Computing Atmospheric mass density...
Loading historical data...
Loading historical data...
Loading historical data...
Loading historical data...
Loading historical data...
Loading historical data...
Loading historical data...

Documentation

Showing up to 5 results
|